Caribou, ME

12:50 AM EDT on August 26, 2016 (GMT -0400)
Caribou Municipal

Weather History for KCAR - November, 2013

Change the Weather History Date:

Tuesday, November 12, 2013

  Actual Average Record
Temperature  
Mean Temperature 27 °F 33 °F  
Max Temperature 33 °F 40 °F 60 °F (1982)
Min Temperature 20 °F 26 °F 6 °F (1985)
Degree Days  
Heating Degree Days 38 32  
Month to date heating degree days 353 357  
Since 1 July heating degree days 1309 1497  
Cooling Degree Days 0 0  
Month to date cooling degree days 0 0  
Year to date cooling degree days 192 180  
Moisture  
Dew Point 21 °F    
Average Humidity 75    
Maximum Humidity 92    
Minimum Humidity 57    
Precipitation  
Precipitation 0.03 in 0.11 in 1.20 in (1946)
Month to date precipitation 1.26 1.46  
Year to date precipitation 43.83 33.05  
Snow  
Snow 1.00 in 0.30 in 5.70 in (1963)
Month to date snowfall 4.2 2.7  
Since 1 July snowfall 5.2 4.4  
Since 1 September snowfall 5.2 4.4  
Snow Depth 3.00 in    
Sea Level Pressure  
Sea Level Pressure 29.81 in    
Wind  
Wind Speed 11 mph (WSW)    
Max Wind Speed 20 mph    
Max Gust Speed 28 mph    
Visibility 9 miles    
Events Snow    
T = Trace of Precipitation, MM = Missing Value Source: NWS Daily Summary

Daily Weather History Graph

Daily Weather History Graph

Search for Another Location

Airport or City:

Trip Planner

Search our weather history database for the weather conditions in past years. The results will help you decide how hot, cold, wet, or windy it might be!

Date:

Astronomy

Nov. 12, 2013 Rise Set
Actual Time 6:30 AM EST 4:00 PM EST
Civil Twilight 5:58 AM EST 4:33 PM EST
Nautical Twilight 5:21 AM EST 5:10 PM EST
Astronomical Twilight 4:45 AM EST 5:46 PM EST
Moon 1:29 PM EST (11/12) 12:58 AM EST (11/12)
Length of Visible Light 10h 35m
Length of Day
9h 29m
Waxing Gibbous, 76% of the Moon is Illuminated
Nov 12
Waxing Gibbous
Nov 17
Full
Nov 25
Last Quarter
Dec 2
New
Dec 9
First Quarter

Hourly Weather History & Observations

Time (EST) Temp. Windchill Dew Point Humidity Pressure Visibility Wind Dir Wind Speed Gust Speed Precip Events Conditions
12:11 AM 30.2 °F 22.6 °F 28.4 °F 93% 29.72 in 1.5 mi SSE 8.1 mph - 0.01 in Snow Light Snow
12:21 AM 30.2 °F 23.4 °F 28.4 °F 93% 29.72 in 1.2 mi South 6.9 mph - 0.02 in Snow Light Snow
12:41 AM 30.2 °F 23.4 °F 30.2 °F 100% 29.71 in 1.5 mi South 6.9 mph - 0.03 in Snow Light Snow
12:54 AM 32.0 °F 24.8 °F 30.0 °F 92% 29.74 in 2.0 mi South 8.1 mph - 0.03 in Snow Light Snow
1:09 AM 32.0 °F 24.2 °F 30.2 °F 93% 29.70 in 5.0 mi South 9.2 mph - 0.00 in Snow Light Snow
1:17 AM 32.0 °F 25.6 °F 30.2 °F 93% 29.70 in 9.0 mi South 6.9 mph - 0.00 in   Overcast
1:54 AM 33.1 °F 27.7 °F 30.0 °F 89% 29.73 in 10.0 mi South 5.8 mph - 0.00 in   Overcast
2:54 AM 32.0 °F 27.5 °F 30.0 °F 92% 29.72 in 10.0 mi South 4.6 mph - N/A   Overcast
3:33 AM 32.0 °F 26.4 °F 30.2 °F 93% 29.69 in 7.0 mi SSW 5.8 mph - 0.00 in Snow Light Snow
3:49 AM 33.8 °F 27.0 °F 30.2 °F 87% 29.69 in 9.0 mi SW 8.1 mph - 0.00 in   Overcast
3:54 AM 33.1 °F 26.9 °F 30.0 °F 89% 29.72 in 10.0 mi SW 6.9 mph - 0.00 in   Overcast
4:54 AM 32.0 °F 23.6 °F 26.1 °F 79% 29.74 in 10.0 mi West 10.4 mph 24.2 mph N/A   Overcast
5:30 AM 30.2 °F 18.9 °F 24.8 °F 80% 29.72 in 9.0 mi WNW 16.1 mph 23.0 mph 0.00 in Snow Light Snow
5:54 AM 30.0 °F 19.5 °F 23.0 °F 75% 29.78 in 10.0 mi WNW 13.8 mph 21.9 mph 0.00 in   Overcast
6:13 AM 28.4 °F 19.1 °F 21.2 °F 74% 29.76 in 10.0 mi NW 10.4 mph - N/A   Overcast
6:45 AM 28.4 °F 19.7 °F 21.2 °F 74% 29.77 in 10.0 mi WNW 9.2 mph 16.1 mph N/A   Overcast
6:54 AM 28.0 °F 21.7 °F 21.9 °F 78% 29.81 in 10.0 mi West 5.8 mph 17.3 mph N/A   Overcast
7:54 AM 24.1 °F 12.5 °F 17.1 °F 75% 29.84 in 10.0 mi West 12.7 mph - N/A   Overcast
8:54 AM 21.9 °F 10.4 °F 14.0 °F 72% 29.86 in 10.0 mi West 11.5 mph 20.7 mph N/A   Mostly Cloudy
9:09 AM 21.2 °F 9.5 °F 12.2 °F 68% 29.83 in 10.0 mi West 11.5 mph 23.0 mph N/A   Scattered Clouds
9:54 AM 21.0 °F 10.6 °F 14.0 °F 74% 29.87 in 10.0 mi SW 9.2 mph - N/A   Mostly Cloudy
10:54 AM 25.0 °F 14.2 °F 14.0 °F 63% 29.86 in 10.0 mi West 11.5 mph 20.7 mph N/A   Mostly Cloudy
11:54 AM 27.0 °F 19.5 °F 15.1 °F 61% 29.84 in 10.0 mi West 6.9 mph 17.3 mph N/A   Overcast
12:54 PM 27.0 °F 14.3 °F 16.0 °F 63% 29.84 in 8.0 mi West 17.3 mph 25.3 mph 0.00 in   Overcast
12:56 PM 68.0 °F - 37.4 °F 33% 30.05 in 10.0 mi Variable 3.5 mph - N/A   Partly Cloudy
1:54 PM 27.0 °F 15.6 °F 15.1 °F 61% 29.83 in 10.0 mi WSW 13.8 mph 23.0 mph 0.00 in   Overcast
2:54 PM 27.0 °F 17.3 °F 14.0 °F 58% 29.84 in 10.0 mi West 10.4 mph 25.3 mph 0.00 in   Partly Cloudy
3:54 PM 25.0 °F 15.5 °F 12.9 °F 60% 29.86 in 10.0 mi WSW 9.2 mph - N/A   Clear
4:54 PM 24.1 °F 13.7 °F 14.0 °F 65% 29.87 in 10.0 mi WSW 10.4 mph - N/A   Partly Cloudy
5:54 PM 23.0 °F 10.1 °F 14.0 °F 68% 29.88 in 10.0 mi WSW 15.0 mph 20.7 mph N/A   Scattered Clouds
6:54 PM 23.0 °F 11.7 °F 14.0 °F 68% 29.88 in 10.0 mi WSW 11.5 mph - N/A   Clear
7:54 PM 23.0 °F 11.1 °F 14.0 °F 68% 29.88 in 10.0 mi WSW 12.7 mph 20.7 mph N/A   Clear
8:54 PM 21.9 °F 11.0 °F 12.9 °F 68% 29.90 in 10.0 mi WSW 10.4 mph - N/A   Clear
9:54 PM 21.9 °F 9.8 °F 12.0 °F 66% 29.90 in 10.0 mi West 12.7 mph 19.6 mph N/A   Clear
10:54 PM 21.0 °F 8.6 °F 12.0 °F 68% 29.91 in 10.0 mi West 12.7 mph 21.9 mph N/A   Clear
11:54 PM 19.9 °F 9.3 °F 12.0 °F 71% 29.93 in 10.0 mi WSW 9.2 mph - N/A   Clear